TimeAKDT,TemperatureF,Dew PointF,Humidity,Sea Level PressureIn,VisibilityMPH,Wind Direction,Wind SpeedMPH,Gust SpeedMPH,PrecipitationIn,Events,Conditions,WindDirDegrees,DateUTC
12:53 AM,25.0,24.1,96,30.44,6.0,Calm,Calm,-,N/A,,Overcast,0,2013-04-23 08:53:00
1:53 AM,25.0,24.1,96,30.43,10.0,Calm,Calm,-,N/A,,Overcast,0,2013-04-23 09:53:00
2:23 AM,24.8,24.8,100,30.43,10.0,Calm,Calm,-,N/A,,Overcast,0,2013-04-23 10:23:00
2:53 AM,25.0,24.1,96,30.44,10.0,Calm,Calm,-,N/A,,Overcast,0,2013-04-23 10:53:00
3:39 AM,24.8,24.8,100,30.44,10.0,WNW,4.6,-,N/A,,Overcast,290,2013-04-23 11:39:00
3:53 AM,25.0,24.1,96,30.44,10.0,Calm,Calm,-,N/A,,Overcast,0,2013-04-23 11:53:00
4:53 AM,26.1,24.1,92,30.45,10.0,West,9.2,-,N/A,,Overcast,280,2013-04-23 12:53:00
5:53 AM,26.1,24.1,92,30.45,9.0,West,5.8,-,0.00,Snow,Light Snow,270,2013-04-23 13:53:00
6:53 AM,26.1,24.1,92,30.43,10.0,WNW,5.8,-,0.00,,Overcast,290,2013-04-23 14:53:00
7:53 AM,26.1,24.1,92,30.44,10.0,Calm,Calm,-,N/A,,Overcast,0,2013-04-23 15:53:00
8:53 AM,27.0,24.1,89,30.44,10.0,SSW,3.5,-,0.00,,Overcast,210,2013-04-23 16:53:00
9:53 AM,27.0,24.1,89,30.44,10.0,SW,4.6,-,N/A,,Overcast,230,2013-04-23 17:53:00
10:53 AM,26.1,24.1,92,30.45,10.0,SSW,5.8,-,N/A,,Overcast,200,2013-04-23 18:53:00
11:53 AM,26.1,24.1,92,30.45,10.0,SW,6.9,-,N/A,,Overcast,220,2013-04-23 19:53:00
12:53 PM,26.1,23.0,88,30.46,10.0,SW,5.8,-,N/A,,Overcast,230,2013-04-23 20:53:00
1:53 PM,26.1,24.1,92,30.45,5.0,WSW,5.8,-,0.00,Snow,Light Snow,240,2013-04-23 21:53:00
2:53 PM,26.1,24.1,92,30.45,10.0,Variable,3.5,-,0.00,,Overcast,0,2013-04-23 22:53:00
3:53 PM,26.1,24.1,92,30.44,10.0,South,5.8,-,N/A,,Overcast,190,2013-04-23 23:53:00
4:53 PM,26.1,24.1,92,30.43,10.0,WSW,5.8,-,N/A,,Overcast,240,2013-04-24 00:53:00
5:49 PM,26.6,24.8,93,30.42,10.0,WSW,5.8,-,N/A,,Overcast,250,2013-04-24 01:49:00
5:53 PM,26.1,24.1,92,30.43,10.0,West,3.5,-,N/A,,Overcast,260,2013-04-24 01:53:00
6:53 PM,26.1,24.1,92,30.42,10.0,WSW,5.8,-,N/A,,Overcast,250,2013-04-24 02:53:00
7:53 PM,26.1,24.1,92,30.41,10.0,SW,6.9,-,N/A,,Overcast,230,2013-04-24 03:53:00
8:53 PM,26.1,24.1,92,30.40,10.0,WSW,3.5,-,N/A,,Overcast,250,2013-04-24 04:53:00
9:53 PM,26.1,25.0,96,30.39,10.0,SSW,4.6,-,N/A,,Overcast,210,2013-04-24 05:53:00
10:53 PM,27.0,26.1,96,30.39,10.0,WSW,4.6,-,N/A,,Overcast,250,2013-04-24 06:53:00
11:53 PM,27.0,26.1,96,30.39,9.0,WSW,5.8,-,0.00,Snow,Light Snow,250,2013-04-24 07:53:00